Time,TemperatureF,DewpointF,PressureIn,WindDirection,WindDirectionDegrees,WindSpeedMPH,WindSpeedGustMPH,Humidity,HourlyPrecipIn,Conditions,Clouds,dailyrainin,SoftwareType,DateUTC
2013-06-27 00:10:00,72.2,66.0,29.82,NW,315,0.0,-999.0,81,-99.99,,,0.00,weatherlink.com 1.10,2013-06-27 04:10:00,
2013-06-27 00:28:00,72.4,66.0,29.80,NW,315,0.0,-999.0,79,-99.99,,,0.00,weatherlink.com 1.10,2013-06-27 04:28:00,
2013-06-27 00:41:00,72.5,66.0,29.80,NW,315,0.0,-999.0,80,-99.99,,,0.00,weatherlink.com 1.10,2013-06-27 04:41:00,
2013-06-27 00:56:00,72.2,66.0,29.80,NW,315,0.0,-999.0,81,-99.99,,,0.00,weatherlink.com 1.10,2013-06-27 04:56:00,
2013-06-27 01:11:00,71.8,66.0,29.79,NW,315,0.0,-999.0,83,-99.99,,,0.00,weatherlink.com 1.10,2013-06-27 05:11:00,
2013-06-27 01:28:00,71.5,67.0,29.79,NW,315,0.0,-999.0,85,-99.99,,,0.00,weatherlink.com 1.10,2013-06-27 05:28:00,
2013-06-27 01:43:00,71.0,67.0,29.79,NW,315,0.0,-999.0,87,-99.99,,,0.00,weatherlink.com 1.10,2013-06-27 05:43:00,
2013-06-27 01:58:00,70.4,67.0,29.78,NW,315,0.0,-999.0,88,-99.99,,,0.00,weatherlink.com 1.10,2013-06-27 05:58:00,
2013-06-27 02:13:00,70.0,67.0,29.77,NW,315,0.0,-999.0,90,-99.99,,,0.00,weatherlink.com 1.10,2013-06-27 06:13:00,
2013-06-27 02:28:00,69.7,67.0,29.78,NW,315,1.0,-999.0,90,-99.99,,,0.00,weatherlink.com 1.10,2013-06-27 06:28:00,
2013-06-27 02:44:00,70.1,67.0,29.77,West,271,0.0,-999.0,89,-99.99,,,0.00,weatherlink.com 1.10,2013-06-27 06:44:00,
2013-06-27 02:59:00,70.8,66.0,29.77,NNW,334,1.0,-999.0,85,-99.99,,,0.00,weatherlink.com 1.10,2013-06-27 06:59:00,
2013-06-27 03:15:00,71.1,66.0,29.77,North,355,4.0,-999.0,83,-99.99,,,0.00,weatherlink.com 1.10,2013-06-27 07:15:00,
2013-06-27 03:29:00,70.9,66.0,29.77,NNE,19,2.0,-999.0,83,-99.99,,,0.00,weatherlink.com 1.10,2013-06-27 07:29:00,
2013-06-27 03:46:00,70.9,66.0,29.76,North,9,0.0,-999.0,83,-99.99,,,0.00,weatherlink.com 1.10,2013-06-27 07:46:00,
2013-06-27 04:01:00,70.9,66.0,29.77,North,9,0.0,-999.0,83,-99.99,,,0.00,weatherlink.com 1.10,2013-06-27 08:01:00,
2013-06-27 04:16:00,70.1,65.0,29.77,North,9,0.0,-999.0,84,-99.99,,,0.00,weatherlink.com 1.10,2013-06-27 08:16:00,
2013-06-27 04:31:00,69.1,65.0,29.78,North,9,0.0,-999.0,86,-99.99,,,0.00,weatherlink.com 1.10,2013-06-27 08:31:00,
2013-06-27 04:46:00,69.0,65.0,29.78,North,9,0.0,-999.0,87,-99.99,,,0.00,weatherlink.com 1.10,2013-06-27 08:46:00,
2013-06-27 05:36:00,69.2,65.0,29.79,North,11,0.0,-999.0,85,-99.99,,,0.00,weatherlink.com 1.10,2013-06-27 09:36:00,
2013-06-27 05:46:00,68.6,64.0,29.78,North,11,0.0,-999.0,86,-99.99,,,0.00,weatherlink.com 1.10,2013-06-27 09:46:00,
2013-06-27 06:01:00,68.5,65.0,29.79,North,11,1.0,-999.0,88,-99.99,,,0.00,weatherlink.com 1.10,2013-06-27 10:01:00,
2013-06-27 06:18:00,69.2,65.0,29.79,North,11,0.0,-999.0,86,-99.99,,,0.00,weatherlink.com 1.10,2013-06-27 10:18:00,
2013-06-27 06:33:00,69.3,65.0,29.79,West,273,0.0,-999.0,87,-99.99,,,0.00,weatherlink.com 1.10,2013-06-27 10:33:00,
2013-06-27 06:48:00,69.1,66.0,29.79,West,273,0.0,-999.0,88,-99.99,,,0.00,weatherlink.com 1.10,2013-06-27 10:48:00,
2013-06-27 07:03:00,69.0,66.0,29.79,West,273,0.0,-999.0,89,-99.99,,,0.00,weatherlink.com 1.10,2013-06-27 11:03:00,
2013-06-27 07:18:00,69.7,67.0,29.79,West,273,0.0,-999.0,90,-99.99,,,0.00,weatherlink.com 1.10,2013-06-27 11:18:00,
2013-06-27 07:36:00,71.0,67.0,29.79,West,273,0.0,-999.0,87,-99.99,,,0.00,weatherlink.com 1.10,2013-06-27 11:36:00,
2013-06-27 07:49:00,72.2,68.0,29.78,West,273,0.0,-999.0,86,-99.99,,,0.00,weatherlink.com 1.10,2013-06-27 11:49:00,
2013-06-27 08:04:00,73.7,68.0,29.79,West,273,0.0,-999.0,83,-99.99,,,0.00,weatherlink.com 1.10,2013-06-27 12:04:00,
2013-06-27 08:19:00,74.7,69.0,29.78,West,273,0.0,-999.0,83,-99.99,,,0.00,weatherlink.com 1.10,2013-06-27 12:19:00,
2013-06-27 08:36:00,75.9,69.0,29.78,WSW,242,0.0,-999.0,80,-99.99,,,0.00,weatherlink.com 1.10,2013-06-27 12:36:00,
2013-06-27 08:51:00,76.4,69.0,29.78,SSW,196,0.0,-999.0,79,-99.99,,,0.00,weatherlink.com 1.10,2013-06-27 12:51:00,
2013-06-27 09:06:00,77.0,70.0,29.77,SSW,196,0.0,-999.0,78,-99.99,,,0.00,weatherlink.com 1.10,2013-06-27 13:06:00,
2013-06-27 09:21:00,78.4,70.0,29.77,SE,135,0.0,-999.0,76,-99.99,,,0.00,weatherlink.com 1.10,2013-06-27 13:21:00,
2013-06-27 09:36:00,79.7,70.0,29.76,SE,135,1.0,-999.0,72,-99.99,,,0.00,weatherlink.com 1.10,2013-06-27 13:36:00,
2013-06-27 09:53:00,80.2,70.0,29.76,SE,135,0.0,-999.0,72,-99.99,,,0.00,weatherlink.com 1.10,2013-06-27 13:53:00,
2013-06-27 10:08:00,80.4,71.0,29.76,SSW,206,0.0,-999.0,72,-99.99,,,0.00,weatherlink.com 1.10,2013-06-27 14:08:00,
2013-06-27 10:23:00,80.5,70.0,29.76,SSE,148,1.0,-999.0,70,-99.99,,,0.00,weatherlink.com 1.10,2013-06-27 14:23:00,
2013-06-27 10:38:00,81.0,69.0,29.76,NE,53,0.0,-999.0,67,-99.99,,,0.00,weatherlink.com 1.10,2013-06-27 14:38:00,
2013-06-27 10:56:00,82.0,70.0,29.75,ENE,67,3.0,-999.0,67,-99.99,,,0.00,weatherlink.com 1.10,2013-06-27 14:56:00,
2013-06-27 11:08:00,81.5,70.0,29.75,ESE,119,0.0,-999.0,69,-99.99,,,0.00,weatherlink.com 1.10,2013-06-27 15:08:00,
2013-06-27 11:24:00,82.5,69.0,29.75,East,81,1.0,-999.0,64,-99.99,,,0.00,weatherlink.com 1.10,2013-06-27 15:24:00,
2013-06-27 11:39:00,82.8,70.0,29.74,NNE,15,0.0,-999.0,65,-99.99,,,0.00,weatherlink.com 1.10,2013-06-27 15:39:00,
2013-06-27 11:54:00,82.8,70.0,29.74,NE,40,0.0,-999.0,65,-99.99,,,0.00,weatherlink.com 1.10,2013-06-27 15:54:00,
2013-06-27 12:10:00,82.8,72.0,29.74,SSE,153,0.0,-999.0,69,-99.99,,,0.00,weatherlink.com 1.10,2013-06-27 16:10:00,
2013-06-27 12:26:00,83.6,71.0,29.74,ENE,74,1.0,-999.0,66,-99.99,,,0.00,weatherlink.com 1.10,2013-06-27 16:26:00,
2013-06-27 12:41:00,83.2,72.0,29.73,NNW,339,1.0,-999.0,68,-99.99,,,0.00,weatherlink.com 1.10,2013-06-27 16:41:00,
2013-06-27 12:56:00,83.2,72.0,29.73,East,98,0.0,-999.0,70,-99.99,,,0.00,weatherlink.com 1.10,2013-06-27 16:56:00,
2013-06-27 13:11:00,83.7,70.0,29.72,SE,142,5.0,-999.0,64,-99.99,,,0.00,weatherlink.com 1.10,2013-06-27 17:11:00,
2013-06-27 13:26:00,83.4,71.0,29.72,East,99,0.0,-999.0,67,-99.99,,,0.00,weatherlink.com 1.10,2013-06-27 17:26:00,
2013-06-27 13:41:00,83.9,71.0,29.71,SSE,156,0.0,-999.0,65,-99.99,,,0.00,weatherlink.com 1.10,2013-06-27 17:41:00,
2013-06-27 13:58:00,84.5,71.0,29.70,South,178,7.0,-999.0,64,-99.99,,,0.00,weatherlink.com 1.10,2013-06-27 17:58:00,
2013-06-27 14:14:00,85.7,73.0,29.70,ENE,57,0.0,-999.0,65,-99.99,,,0.00,weatherlink.com 1.10,2013-06-27 18:14:00,
2013-06-27 14:28:00,84.5,72.0,29.69,East,100,1.0,-999.0,67,-99.99,,,0.00,weatherlink.com 1.10,2013-06-27 18:28:00,
2013-06-27 14:43:00,84.7,71.0,29.69,ENE,77,1.0,-999.0,64,-99.99,,,0.00,weatherlink.com 1.10,2013-06-27 18:43:00,
2013-06-27 14:59:00,86.4,72.0,29.68,SE,146,0.0,-999.0,62,-99.99,,,0.00,weatherlink.com 1.10,2013-06-27 18:59:00,
2013-06-27 15:14:00,86.8,73.0,29.68,ENE,78,0.0,-999.0,63,-99.99,,,0.00,weatherlink.com 1.10,2013-06-27 19:14:00,
2013-06-27 15:30:00,85.9,72.0,29.67,ENE,65,0.0,-999.0,64,-99.99,,,0.00,weatherlink.com 1.10,2013-06-27 19:30:00,
2013-06-27 15:44:00,86.0,72.0,29.67,East,82,2.0,-999.0,64,-99.99,,,0.00,weatherlink.com 1.10,2013-06-27 19:44:00,
2013-06-27 15:59:00,85.5,72.0,29.66,ESE,121,0.0,-999.0,65,-99.99,,,0.00,weatherlink.com 1.10,2013-06-27 19:59:00,
2013-06-27 16:16:00,85.7,73.0,29.65,ESE,105,0.0,-999.0,65,-99.99,,,0.00,weatherlink.com 1.10,2013-06-27 20:16:00,
2013-06-27 16:31:00,84.8,71.0,29.63,ESE,123,0.0,-999.0,64,-99.99,,,0.00,weatherlink.com 1.10,2013-06-27 20:31:00,
2013-06-27 17:01:00,83.4,72.0,29.61,South,171,0.0,-999.0,68,-99.99,,,0.00,weatherlink.com 1.10,2013-06-27 21:01:00,
2013-06-27 17:48:00,81.0,71.0,29.59,SE,138,1.0,-999.0,72,-99.99,,,0.00,weatherlink.com 1.10,2013-06-27 21:48:00,
2013-06-27 18:03:00,76.6,69.0,29.59,East,94,1.0,-999.0,76,-99.99,,,0.04,weatherlink.com 1.10,2013-06-27 22:03:00,
2013-06-27 18:39:00,73.7,70.0,29.58,ESE,119,2.0,-999.0,87,-99.99,,,0.04,weatherlink.com 1.10,2013-06-27 22:39:00,
2013-06-27 19:04:00,73.3,69.0,29.57,East,87,1.0,-999.0,86,-99.99,,,0.04,weatherlink.com 1.10,2013-06-27 23:04:00,
2013-06-27 19:20:00,73.1,69.0,29.57,ESE,117,2.0,-999.0,87,-99.99,,,0.11,weatherlink.com 1.10,2013-06-27 23:20:00,
2013-06-27 19:34:00,70.8,68.0,29.57,ESE,103,1.0,-999.0,89,-99.99,,,0.71,weatherlink.com 1.10,2013-06-27 23:34:00,
2013-06-27 19:51:00,70.2,68.0,29.56,ESE,123,1.0,-999.0,91,-99.99,,,0.71,weatherlink.com 1.10,2013-06-27 23:51:00,
2013-06-27 20:06:00,70.1,68.0,29.55,East,84,2.0,-999.0,92,-99.99,,,0.71,weatherlink.com 1.10,2013-06-28 00:06:00,
2013-06-27 20:21:00,70.2,68.0,29.55,ESE,105,0.0,-999.0,93,-99.99,,,0.71,weatherlink.com 1.10,2013-06-28 00:21:00,
2013-06-27 20:36:00,70.6,69.0,29.54,SE,128,4.0,-999.0,93,-99.99,,,0.71,weatherlink.com 1.10,2013-06-28 00:36:00,
2013-06-27 21:23:00,70.9,69.0,29.53,ESE,103,1.0,-999.0,94,-99.99,,,0.76,weatherlink.com 1.10,2013-06-28 01:23:00,
2013-06-27 21:53:00,70.8,69.0,29.52,NE,52,0.0,-999.0,94,-99.99,,,0.78,weatherlink.com 1.10,2013-06-28 01:53:00,
2013-06-27 22:08:00,70.9,69.0,29.53,NNW,347,3.0,-999.0,94,-99.99,,,0.81,weatherlink.com 1.10,2013-06-28 02:08:00,
2013-06-27 22:23:00,70.4,69.0,29.54,North,360,0.0,-999.0,94,-99.99,,,0.83,weatherlink.com 1.10,2013-06-28 02:23:00,
2013-06-27 22:39:00,69.7,68.0,29.55,WNW,300,1.0,-999.0,94,-99.99,,,0.83,weatherlink.com 1.10,2013-06-28 02:39:00,
2013-06-27 22:54:00,69.3,68.0,29.55,North,5,4.0,-999.0,94,-99.99,,,0.83,weatherlink.com 1.10,2013-06-28 02:54:00,
2013-06-27 23:24:00,69.3,68.0,29.55,NW,310,4.0,-999.0,94,-99.99,,,0.83,weatherlink.com 1.10,2013-06-28 03:24:00,
2013-06-27 23:40:00,69.2,68.0,29.54,NE,55,0.0,-999.0,94,-99.99,,,0.83,weatherlink.com 1.10,2013-06-28 03:40:00,
2013-06-27 23:56:00,69.2,68.0,29.55,West,273,2.0,-999.0,94,-99.99,,,0.83,weatherlink.com 1.10,2013-06-28 03:56:00,